[[{"header":{"parameterUnit":"m.s-1","parameterCategory":1,"la1":30.2991,"la2":30.254,"lo1":-89.0895,"lo2":-89.0444,"dy":0.0017,"dx":0.0017,"nx":28,"ny":28,"refTime":"2025-02-05T09:00:00:Z","depth":0,"parameterNumber":2,"parameterNumberName":"U-component_of_WINDS"},"data":[0,0,0,0,0,0,0,0,0,0,0,0,0,0,0,0,0,0,0,0,0,0,0,0,0,0,0,0,0,0,0,0,0,0,0,0,0,0,0,0,0,0,0,0,0,0,0,0,0,0,0,0,0,0,0,0,0,0,0.3339,0.334,0,0.3364,0.3365,0.3365,0.335,0.3349,0.3349,0.3348,0.3375,0.3376,0.3377,0,0,0,0,0,0,0,0,0,0,0,0,0,0.328,0.3281,0.3339,0.334,0.334,0.3364,0.3365,0.3365,0.335,0.3349,0.3349,0.3348,0.3374,0.3376,0.3377,0,0,0,0,0,0,0,0,0,0,0,0,0,0.3306,0.3282,0.3339,0.3336,0.3336,0.3364,0.3365,0.3365,0.3351,0.3349,0.3348,0.3347,0.3374,0.3376,0.3378,0.3412,0,0,0.3384,0.3385,0,0,0,0,0,0,0,0,0.3304,0.3308,0.3336,0.3336,0.3336,0.3353,0.3353,0.3381,0.3351,0.3345,0.3348,0.3347,0.3368,0.3371,0.3378,0.3413,0.3414,0.3384,0.3385,0.3386,0.3387,0,0,0,0,0,0,0,0.3302,0.3307,0.3349,0.3336,0.3336,0.3333,0.3335,0.3358,0.3362,0.3345,0.3344,0.3347,0.3368,0.3376,0.3378,0.3414,0.3384,0.3386,0.3387,0.3388,0.3479,0.348,0,0,0,0,0,0,0.3301,0.3305,0.3349,0.335,0.3317,0.3335,0.3338,0.3349,0.3362,0.3363,0.3348,0.3347,0.3373,0.3376,0.3379,0.342,0.3386,0.3388,0.3389,0.3477,0.3479,0.348,0,0,0,0,0,0,0.33,0.3305,0.3348,0.3327,0.3333,0.3337,0.335,0.335,0.3357,0.3364,0.3365,0.3355,0.3372,0.3376,0.3404,0.3421,0.3389,0.3391,0.3476,0.3478,0.3479,0.3502,0,0,0,0,0,0,0.3298,0.3304,0.3317,0.3328,0.3334,0.3371,0.3351,0.3351,0.3361,0.3359,0.3371,0.3372,0.3372,0.3401,0.3406,0.3423,0.3392,0.3474,0.3477,0.3479,0.3499,0.3504,0.3508,0,0,0,0,0,0.3296,0.3323,0.3318,0.3323,0.335,0.3372,0.3376,0.3374,0.3362,0.3375,0.338,0.3372,0.3418,0.3403,0.3409,0.3427,0.3473,0.3476,0.3479,0.3498,0.3503,0.3508,0,0,0,0,0,0,0.3314,0.3324,0.3319,0.335,0.336,0.337,0.3386,0.338,0.3395,0.3392,0.339,0.3393,0.3422,0.3427,0.3411,0.3461,0.3444,0.3448,0.3456,0.3462,0.3466,0.3464,0.3394,0,0,0,0,0,0.3322,0.3339,0.3347,0.3374,0.3379,0.3382,0.3392,0.3389,0.34,0.3405,0.3411,0.3422,0.3439,0.3451,0.3467,0.35,0.3503,0.3515,0.3519,0.3523,0.3526,0.3544,0.355,0.3489,0.3489,0.3489,0,0,0.3338,0.3345,0.3357,0.3377,0.3385,0.3404,0.3386,0.3406,0.3419,0.3408,0.3434,0.3439,0.3452,0.3482,0.3496,0.3487,0.3544,0.3526,0.3529,0.3531,0.3548,0.3554,0.3559,0.3491,0.349,0.349,0,0,0.3377,0.3384,0.3407,0.3415,0.3427,0.3429,0.3434,0.3445,0.3448,0.3474,0.3466,0.3482,0.3511,0.352,0.3529,0.3571,0.3564,0.3576,0.3598,0.3616,0.3621,0.3625,0.364,0.3645,0.3579,0.3579,0.3579,0,0.3395,0.3422,0.342,0.344,0.345,0.344,0.3463,0.3472,0.3489,0.3495,0.3486,0.3522,0.353,0.3562,0.3572,0.358,0.3586,0.3575,0.362,0.3624,0.3628,0.3643,0.3648,0.3581,0.3581,0.358,0.358,0,0.3444,0.3463,0.348,0.3497,0.3508,0.353,0.3531,0.3543,0.354,0.3542,0.3569,0.3578,0.3595,0.3603,0.36,0.3635,0.363,0.362,0.3603,0.3636,0.3649,0.3655,0.3583,0.3582,0.3582,0.3581,0,0,0.3496,0.351,0.3516,0.3524,0.3536,0.3551,0.3572,0.3589,0.36,0.3611,0.363,0.3654,0.3646,0.3655,0.3654,0.3669,0.3702,0.3658,0.3658,0.3666,0.3741,0.3748,0.3755,0.3697,0.3698,0.3699,0.374,0,0.3535,0.3573,0.3571,0.3606,0.3624,0.3614,0.3633,0.3643,0.3646,0.3662,0.3665,0.3683,0.367,0.3675,0.369,0.3695,0.3717,0.3692,0.3715,0.3715,0.3712,0.3762,0.377,0.3808,0.3745,0.3746,0.3747,0,0.3587,0.36,0.3637,0.3647,0.3654,0.3671,0.3686,0.3701,0.3712,0.3713,0.3724,0.3719,0.3741,0.3723,0.3754,0.3737,0.3746,0.375,0.3751,0.3753,0.3733,0.3766,0.382,0.3826,0.3755,0.3754,0.3754,0,0.362,0.3648,0.3673,0.368,0.3692,0.3704,0.371,0.3719,0.373,0.3743,0.375,0.3766,0.3775,0.3787,0.3788,0.3774,0.3819,0.3801,0.382,0.382,0.383,0.383,0.3887,0.3836,0.3836,0.3836,0.3836,0,0.3665,0.3688,0.3689,0.3704,0.373,0.3728,0.3753,0.3757,0.3766,0.3783,0.3776,0.3792,0.3791,0.3807,0.3807,0.3833,0.3837,0.3839,0.3838,0.3839,0.3839,0.3846,0.3843,0.3837,0.3837,0.3837,0.3836,0,0.3707,0.3709,0.3736,0.3745,0.3748,0.3766,0.3774,0.3789,0.3792,0.3813,0.3818,0.3821,0.384,0.3841,0.3863,0.3863,0.3894,0.3891,0.389,0.389,0.391,0.3908,0.3973,0.3982,0.3925,0.3925,0.3926,0,0.3736,0.3753,0.3764,0.3775,0.3781,0.3798,0.3808,0.3807,0.3818,0.3832,0.3845,0.3863,0.3877,0.3908,0.3912,0.3929,0.3926,0.3948,0.3929,0.3929,0.3927,0.3926,0.3928,0.3952,0.3953,0.3953,0.3954,0,0.3786,0.3786,0.3801,0.3816,0.3829,0.3841,0.3852,0.3861,0.3861,0.3874,0.3893,0.3904,0.3926,0.3944,0.396,0.3966,0.396,0.3959,0.3965,0.3966,0.3965,0.3966,0.3901,0.3958,0.3958,0.3957,0.3957,0.3957,0.3823,0.3838,0.3848,0.3865,0.3873,0.3884,0.3898,0.3902,0.3918,0.3935,0.3934,0.3955,0.3965,0.3986,0.3993,0.401,0.4003,0.401,0.4013,0.4015,0.4017,0.3962,0.4013,0.4013,0.4013,0.4012,0.4012,0,0.3873,0.3879,0.3894,0.391,0.3924,0.3917,0.3929,0.3941,0.3959,0.3969,0.3983,0.4005,0.4022,0.4028,0.4045,0.4057,0.4055,0.4062,0.4061,0.4063,0.4022,0.4016,0.4063,0.4063,0.4063,0.4063,0.4063,0.4063,0.39,0.3926,0.3927,0.3956,0.3962,0.3982,0.3989,0.3999,0.4008,0.4032,0.4046,0.405,0.4059,0.4076,0.4092,0.4093,0.41,0.4108,0.4108,0.4071,0.4065,0.4061,0.4055,0.4109,0.4109,0.4147,0.4148,0.4148]},{"header":{"parameterUnit":"m.s-1","parameterCategory":1,"la1":30.2991,"la2":30.254,"lo1":-89.0895,"lo2":-89.0444,"dy":0.0017,"dx":0.0017,"nx":28,"ny":28,"refTime":"2025-02-05T09:00:00:Z","depth":0,"parameterNumber":3,"parameterNumberName":"V-component_of_WINDS"},"data":[0,0,0,0,0,0,0,0,0,0,0,0,0,0,0,0,0,0,0,0,0,0,0,0,0,0,0,0,0,0,0,0,0,0,0,0,0,0,0,0,0,0,0,0,0,0,0,0,0,0,0,0,0,0,0,0,0,0,0.4282,0.4281,0,0.4244,0.4243,0.4243,0.4192,0.4191,0.419,0.4189,0.4151,0.415,0.415,0,0,0,0,0,0,0,0,0,0,0,0,0,0.431,0.431,0.4282,0.4281,0.4281,0.4244,0.4243,0.4243,0.4192,0.4191,0.419,0.4189,0.4151,0.415,0.415,0,0,0,0,0,0,0,0,0,0,0,0,0,0.4287,0.431,0.4282,0.4251,0.4248,0.4244,0.4243,0.4243,0.4192,0.4191,0.419,0.4188,0.4151,0.415,0.415,0.4173,0,0,0.4149,0.4149,0,0,0,0,0,0,0,0,0.4289,0.4286,0.4256,0.4253,0.425,0.4221,0.4239,0.4219,0.4192,0.4213,0.4189,0.4188,0.4175,0.4173,0.4168,0.4172,0.417,0.4149,0.4149,0.4149,0.4148,0,0,0,0,0,0,0,0.429,0.4288,0.4267,0.4256,0.4252,0.4239,0.4234,0.4235,0.4202,0.4211,0.4208,0.4204,0.4173,0.4169,0.4167,0.4169,0.4149,0.4149,0.4148,0.4148,0.4189,0.4191,0,0,0,0,0,0,0.4297,0.4289,0.4268,0.4266,0.4266,0.4239,0.4234,0.4232,0.4202,0.4196,0.4205,0.4201,0.417,0.4167,0.4165,0.4191,0.4149,0.4148,0.4148,0.4188,0.419,0.4191,0,0,0,0,0,0,0.4297,0.4295,0.4269,0.4276,0.4272,0.424,0.4238,0.4231,0.4227,0.4197,0.4191,0.4207,0.4169,0.4166,0.4172,0.4189,0.4148,0.4148,0.4187,0.4189,0.419,0.4242,0,0,0,0,0,0,0.4298,0.4296,0.4305,0.4277,0.4272,0.4277,0.4239,0.4232,0.4227,0.4222,0.4197,0.4191,0.4168,0.4172,0.4171,0.4188,0.4147,0.4185,0.4187,0.419,0.4239,0.4246,0.4251,0,0,0,0,0,0.43,0.4321,0.4305,0.4303,0.4282,0.4278,0.4275,0.4247,0.4228,0.4237,0.4217,0.4192,0.4187,0.4174,0.4172,0.4188,0.4184,0.4187,0.419,0.4236,0.4244,0.4251,0,0,0,0,0,0,0.4351,0.4317,0.4299,0.4312,0.4298,0.4269,0.4279,0.4257,0.4248,0.4244,0.421,0.4205,0.4215,0.4202,0.4187,0.4209,0.4182,0.4184,0.4217,0.4225,0.4231,0.4235,0.4147,0,0,0,0,0,0.4364,0.4363,0.4333,0.4347,0.4341,0.4311,0.4308,0.4288,0.4272,0.4266,0.4247,0.4233,0.4228,0.4226,0.4219,0.4236,0.423,0.4246,0.4253,0.4258,0.4261,0.4269,0.4276,0.4201,0.4201,0.4201,0,0,0.4391,0.4372,0.4373,0.4357,0.4344,0.4344,0.4307,0.4308,0.4308,0.4267,0.4271,0.4256,0.4238,0.425,0.4254,0.4239,0.428,0.4262,0.4266,0.4267,0.4273,0.428,0.4286,0.4203,0.4202,0.4202,0,0,0.444,0.4425,0.4435,0.4423,0.4403,0.4383,0.4386,0.436,0.4348,0.4352,0.4321,0.432,0.4312,0.43,0.4293,0.4337,0.4314,0.4336,0.4369,0.4377,0.4383,0.4388,0.4404,0.441,0.4339,0.4339,0.4339,0,0.4475,0.4474,0.4443,0.4447,0.444,0.4402,0.4412,0.4402,0.4382,0.4378,0.4362,0.4351,0.4336,0.4344,0.4355,0.435,0.4352,0.4339,0.4385,0.4389,0.4394,0.4408,0.4414,0.4341,0.4341,0.4341,0.4341,0,0.4519,0.4518,0.4529,0.451,0.4505,0.4512,0.4482,0.448,0.446,0.4442,0.4446,0.4426,0.4415,0.4415,0.4396,0.4421,0.4412,0.4391,0.4363,0.4404,0.4418,0.4423,0.4346,0.4345,0.4344,0.4343,0,0,0.46,0.4564,0.4568,0.4559,0.4534,0.4533,0.4538,0.4527,0.4527,0.4513,0.4517,0.4511,0.449,0.4483,0.4461,0.4468,0.4504,0.4446,0.4445,0.4458,0.453,0.4547,0.4554,0.4488,0.4489,0.449,0.4532,0,0.4645,0.4651,0.4623,0.4637,0.4636,0.4599,0.4603,0.4589,0.4571,0.4568,0.4548,0.4545,0.4518,0.4514,0.4519,0.4499,0.4518,0.4495,0.4491,0.4491,0.4498,0.4561,0.4579,0.4619,0.4537,0.4538,0.4538,0,0.4698,0.4688,0.4701,0.4675,0.4674,0.4678,0.4666,0.4663,0.4645,0.4632,0.4623,0.4598,0.4601,0.4573,0.4576,0.4561,0.4558,0.4547,0.4548,0.4548,0.4518,0.4562,0.4632,0.4638,0.4546,0.4545,0.4545,0,0.4757,0.4746,0.4752,0.4746,0.4716,0.472,0.4707,0.4688,0.4683,0.4672,0.4669,0.4658,0.4653,0.4645,0.4618,0.46,0.4624,0.4594,0.4613,0.4614,0.4621,0.4621,0.4692,0.4618,0.4618,0.4617,0.4617,0,0.481,0.482,0.4778,0.4783,0.4793,0.476,0.477,0.4754,0.4738,0.4738,0.4705,0.4706,0.467,0.4667,0.4645,0.4651,0.4649,0.4638,0.4633,0.4642,0.4643,0.464,0.4637,0.4619,0.4619,0.4618,0.4618,0,0.4877,0.485,0.4855,0.4826,0.4819,0.4827,0.4802,0.4805,0.4785,0.4786,0.4784,0.4753,0.4748,0.4719,0.4707,0.4693,0.4707,0.4695,0.4713,0.4709,0.473,0.4729,0.4801,0.4809,0.473,0.4731,0.4731,0,0.4914,0.492,0.4892,0.489,0.4879,0.4876,0.487,0.4838,0.4834,0.4814,0.4819,0.4811,0.4803,0.4795,0.4772,0.4762,0.475,0.4776,0.4749,0.4758,0.4751,0.4752,0.4752,0.4783,0.4784,0.4785,0.4785,0,0.4981,0.4967,0.4961,0.4949,0.4944,0.4934,0.4921,0.4921,0.4885,0.4882,0.4876,0.487,0.4857,0.485,0.4836,0.4823,0.4799,0.4794,0.4798,0.4808,0.4818,0.4813,0.473,0.4793,0.4792,0.4791,0.4791,0.4791,0.5034,0.5038,0.5019,0.5013,0.5,0.4989,0.499,0.497,0.4964,0.4952,0.4933,0.4929,0.4911,0.489,0.4878,0.4875,0.4861,0.4867,0.4868,0.487,0.4875,0.4818,0.4872,0.4872,0.4872,0.4872,0.4871,0,0.51,0.5086,0.508,0.5064,0.5059,0.5035,0.502,0.5018,0.5015,0.5,0.4992,0.4985,0.4977,0.4953,0.4942,0.4944,0.4933,0.4943,0.4943,0.494,0.4888,0.4886,0.4952,0.4952,0.4952,0.4952,0.4952,0.4952,0.5134,0.514,0.5124,0.5123,0.5108,0.5104,0.5097,0.5087,0.5075,0.5068,0.5061,0.5045,0.5026,0.5014,0.5005,0.4998,0.4996,0.501,0.4999,0.4952,0.4944,0.4937,0.4934,0.501,0.501,0.5052,0.5052,0.5052]}]]